Regional Weather Roundup
Issued by NWS

Home | Current Version | Previous Version | Text Only | Print | Product List | Glossary On
Versions: 1 2 3 4 5 6 7 8 9 10 11 12 13 14 15 16 17 18 19 20 21 22 23 24 25 26 27 28 29 30 31 32 33 34 35 36 37 38 39 40 41 42 43 44 45 46 47 48 49 50
000
ASUS43 KDTX 131601
RWRMI
MICHIGAN HOURLY REGIONAL WEATHER ROUNDUP
NATIONAL WEATHER SERVICE DETROIT/PONTIAC MI
1200 PM EDT SUN JUL 13 2014

NOTE: "FAIR" INDICATES FEW OR NO CLOUDS BELOW 12,000 FEET WITH NO
SIGNIFICANT WEATHER AND/OR OBSTRUCTION TO VISIBILITY.

MIZ047>049-052>055-059>063-066>070-074>076-081>083-131700-
SOUTHEAST LOWER MICHIGAN

CITY           SKY/WX    TMP DP  RH WIND       PRES   REMARKS
ADRIAN         CLOUDY    78  65  63 NW10      29.91S
ALMA           MOSUNNY   76  62  61 W15       29.86R
ANN ARBOR      PTSUNNY   77  65  66 NW10      29.89R
BAD AXE        SUNNY     77  62  59 W13G18    29.82S
CARO           SUNNY     80  64  58 W12       29.83R
DETROIT CITY   PTSUNNY   80  66  62 W13G18    29.85R
DETROIT        CLOUDY    79  67  66 W13       29.87R
FLINT          MOSUNNY   79  62  56 W16       29.86R
GROSSE ILE     PTSUNNY   79  68  69 W12       29.86R
HILLSDALE      PTSUNNY   76  66  71 W12       29.92S
HOWELL         PTSUNNY   74  64  70 W9        29.88S

CITY           SKY/WX    TMP DP  RH WIND       PRES   REMARKS
JACKSON        CLOUDY    73  63  70 W6        29.91R
LAMBERTVILLE   CLOUDY    79  66  65 W7        29.90S
LANSING        MOSUNNY   76  62  62 W12       29.89R
LAPEER         FAIR      77  62  59 W9G17     29.85S
MASON          PTSUNNY   74  63  69 W7        29.89S
MONROE         PTSUNNY   79  68  69 W10       29.88R
MT. CLEMENS    PTSUNNY   79  66  65 NW10      29.83R
PONTIAC        PTSUNNY   76  63  64 NW10      29.86S
PORT HOPE        N/A     79  63  57 W10G18    29.78R
PORT HURON     PTSUNNY   77  66  69 NW8       29.83S
TRI CITIES     MOSUNNY   79  64  60 W16G25    29.84S
TROY           PTSUNNY   77  67  69 NW9       29.86S
SAGINAW HB     SUNNY     79  61  53 SW14      29.82F
$$
MIZ043>046-050>051-056>058-064>065-071>073-077>080-131700-
SOUTHWEST LOWER MICHIGAN

CITY           SKY/WX    TMP DP  RH WIND       PRES   REMARKS
BATTLE CREEK   PTSUNNY   74  65  73 W10       29.92S
BENTON HARBOR  PTSUNNY   70  65  84 W7        29.94S
BIG RAPIDS     CLOUDY    71  65  83 NW8G21    29.88S
COLDWATER      PTSUNNY   75  65  71 W10       29.93R
FREMONT        CLOUDY    73  66  79 W8        29.88S
HOLLAND        CLOUDY    72  65  78 W10       29.93R
GRAND RAPIDS   PTSUNNY   75  65  70 W15       29.90R
IONIA          FAIR      76  64  64 W9        29.87S
KALAMAZOO      PTSUNNY   73  65  75 W8        29.93R
LUDINGTON      PTSUNNY   69  66  88 W6        29.89S
MARSHALL       PTSUNNY   73  65  76 W9G18     29.91S
MOUNT PLEASANT MOSUNNY   74  62  66 W12       29.86R
MUSKEGON       CLOUDY    69  62  78 NW6       29.92R
SOUTH HAVEN    MOSUNNY   71  66  84 W6        29.93S
$$
MIZ016>042-131700-
NORTHERN LOWER MICHIGAN

CITY           SKY/WX    TMP DP  RH WIND       PRES   REMARKS
ALPENA         PTSUNNY   74  61  63 W12G18    29.77F
BEAVER ISLAND  MOSUNNY   69  58  69 NW8       29.81R
BELLAIRE       PTSUNNY   70  60  70 W5        29.82R
CADILLAC       PTSUNNY   71  63  77 W10       29.86S
CHARLEVOIX     MOSUNNY   68  61  79 W16       29.85R
FRANKFORT      SUNNY     70  62  76 W8        29.85S
GAYLORD        CLOUDY    66  60  81 W12       29.82S
GRAYLING       MOSUNNY   73  64  73 W10G20    29.84S
HARBOR SPRINGS CLOUDY    63  60  92 SW8       29.79R
HOUGHTON LAKE  PTSUNNY   70  61  73 W13       29.85R
MANISTEE       MOSUNNY   68  61  77 W13       29.87S
OSCODA         MOSUNNY   78  59  52 W16       29.78S
PELLSTON       PTSUNNY   70  60  70 W17       29.79R
ROGERS CITY    MOSUNNY   71  65  80 W10       29.77S
TRAVERSE CITY  PTSUNNY   71  59  65 W12G20    29.82S
$$
MIZ007>008-015-131700-
EASTERN UPPER MICHIGAN

CITY           SKY/WX    TMP DP  RH WIND       PRES   REMARKS
KINROSS        CLOUDY    66  57  72 NW14      29.76R
MACKINAC ISLAN CLOUDY    65  60  85 W15G22    29.77R
NEWBERRY       CLOUDY    62  52  67 W18G26    29.80R
S. S. MARIE    CLOUDY    59  52  77 NW15G23   29.77R
$$
MIZ004>006-011>014-085-131700-
CENTRAL UPPER MICHIGAN

CITY           SKY/WX    TMP DP  RH WIND       PRES   REMARKS
MANISTIQUE     PTSUNNY   68  55  62 NW8G18    29.80R
ESCANABA       SUNNY     70  50  49 W15G24    29.82R
MENOMINEE      MOSUNNY   72  57  60 W9        29.82F
SAWYER-GWINN   MOSUNNY   64  46  52 NW15G25   29.83S
$$
MIZ001>003-009>011-084-131700-
WESTERN UPPER MICHIGAN

CITY           SKY/WX    TMP DP  RH WIND       PRES   REMARKS
IRON MOUNTAIN  MOSUNNY   68  47  46 W12G21    29.85S
HOUGHTON       SUNNY     62  48  60 W21       29.83F
COPPER HARBOR    N/A     63  47  55 NW10G25   29.80S
IRONWOOD       SUNNY     64  45  48 W10G18    29.88S
$$

ABBREVIATIONS USED IN REMARKS
   TC - TEMPERATURE IN CELSIUS
  WCI - WIND CHILL INDEX
   HX - HEAT INDEX
  VSB - VISIBILITY



USA.gov is the U.S. government's official web portal to all federal, state and local government web resources and services.